Вернуться в каталог

COSMOS 1867 COOLANT

АктивенLEO
NORAD 39639·DEBRIS·🇷🇺 Russia

Запущен Jul 10, 1987 с Baikonur Cosmodrome

Loading…

Ближайшие Пролёты (ближайшие 24 часа)

TLE

СвежийSource: Space-Track

Эпоха: Sep 14, 2026, 21:27 UTC

1 39639U 87060G   26257.89409339  .00000144  00000-0  87971-4 0  9993
2 39639  65.0047 121.1616 0018602 277.7599  82.1375 14.33697527650436

Отслеживайте COSMOS 1867 COOLANT в реальном времени с AllMySat

Download on the App Store